Temperature
12 12 12 12 12 12 12 12 12 12 11 11 11 11 11 11 11 11 11 11 11 11 11 11 10 10 10 10 11 11 11 11 11 11 11 10 11 11 11 10 10 10 10
12 12 12 12 12 12 12 11 11 11 11 11 11 11 11 11 11 11 11 11 11 11 11 10 10 10 10 10 10 10 10 10 10 10 10 10 10 10 10 10 10 10 10
12 12 11 11 12 11 11 11 11 11 11 11 11 11 10 10 10 10 10 11 11 11 11 10 10 10 10 10 10 10 10 10 10 10 10 10 10 9 9 9 9 9 9
11 11 11 11 11 11 11 11 11 11 11 10 10 10 10 10 10 10 10 10 10 10 10 10 10 10 10 9 9 9 9 9 9 9 9 9 9 9 9 9 9 9 9
11 11 11 11 11 11 11 11 11 11 10 10 10 10 10 10 10 10 10 10 10 10 10 10 10 9 9 9 9 9 9 9 9 9 9 8 8 8 8 8 8 8 8
11 11 11 11 10 10 10 10 10 10 10 10 10 9 9 9 9 9 9 9 9 9 9 9 9 9 9 9 9 9 8 8 8 8 8 8 8 7 7 7 7 7 7
10 10 10 10 10 10 10 10 10 10 10 9 9 9 9 9 9 9 9 9 9 9 9 9 9 9 9 9 8 8 8 8 8 7 7 7 7 7 7 7 6 6 7
10 10 10 10 10 10 10 10 10 9 9 9 9 9 8 8 8 8 8 8 8 8 8 8 8 8 8 8 8 8 8 7 7 7 7 7 7 7 6 6 6 6 6
10 10 10 10 10 9 9 9 9 9 9 9 9 9 8 8 8 8 8 8 8 8 8 8 8 8 8 7 7 7 7 7 7 6 6 6 6 6 5 5 5 6 6
9 10 10 9 9 9 9 9 9 9 9 9 8 8 8 8 8 7 7 7 7 7 7 7 7 7 7 7 7 7 6 6 6 6 6 5 5 5 5 5 5 5 5
9 9 9 9 9 9 9 9 8 8 8 8 8 8 8 8 8 7 7 7 7 7 7 7 7 7 6 6 6 6 6 6 6 5 5 5 4 4 4 4 4 4 4
9 9 9 9 9 9 8 8 8 8 8 8 8 8 8 8 7 7 7 6 6 6 6 6 6 6 6 6 6 6 5 5 5 5 5 4 4 4 4 4 4 4 4
9 9 9 8 8 8 8 8 8 7 7 7 7 7 7 7 7 7 7 6 6 6 5 5 5 5 5 5 5 5 5 5 5 4 4 4 4 4 4 4 4 3 3
8 8 8 8 8 8 8 7 7 7 7 7 7 7 7 6 6 6 6 6 5 5 5 5 5 5 5 4 4 4 4 4 4 4 4 4 3 3 3 3 3 3 3
8 8 8 8 8 7 7 7 7 7 7 6 6 6 6 6 6 6 6 5 5 4 4 4 4 4 4 4 4 4 4 4 4 3 3 3 3 3 3 3 2 2 2
8 7 7 7 7 7 7 7 7 7 6 6 6 6 6 5 5 5 5 5 5 4 4 4 4 4 4 4 4 3 3 3 3 3 3 3 2 2 2 2 2 2 1
7 7 7 7 7 7 6 6 6 6 6 6 5 5 5 5 5 5 5 4 4 4 4 4 4 3 3 3 3 3 3 3 3 2 2 2 2 2 1 1 1 1 1
6 6 6 6 6 6 6 6 6 6 6 5 5 5 5 5 5 4 4 4 4 4 3 3 3 3 3 3 3 2 2 2 2 2 1 1 1 1 1 0 0 0 -0
6 6 6 6 6 6 6 6 5 5 5 5 5 5 5 4 4 4 4 4 3 3 3 3 3 2 2 2 2 2 2 1 1 1 1 1 0 0 -0 -0 -0 -1 -1
6 6 6 6 6 5 5 5 5 5 5 5 4 4 4 4 4 4 3 3 3 3 2 2 2 2 2 2 1 1 1 1 1 0 0 -0 -0 -1 -1 -1 -1 -1 -1
5 5 5 5 5 5 5 5 5 4 4 4 4 4 4 3 3 3 3 3 2 2 2 2 2 2 1 1 1 0 -0 -0 -0 -0 -1 -1 -1 -1 -1 -1 -1 -2 -2
5 5 5 5 5 5 4 4 4 4 4 4 3 3 3 3 3 3 2 2 2 2 1 1 1 1 1 0 -0 -1 -1 -1 -1 -1 -2 -1 -1 -2 -2 -2 -2 -2 -2
4 4 4 4 4 4 4 4 4 3 3 3 3 3 3 3 2 2 2 2 1 1 1 1 0 0 0 -0 -1 -1 -1 -2 -2 -2 -2 -2 -2 -2 -2 -2 -3 -3 -3
4 4 4 4 4 3 3 3 3 3 3 3 3 2 2 2 2 2 1 1 1 1 1 0 -0 -0 -1 -1 -1 -2 -2 -2 -2 -2 -3 -3 -3 -3 -3 -3 -3 -3 -3
3 3 3 3 3 3 3 3 2 2 2 2 2 2 2 2 1 1 1 1 1 1 0 -0 -1 -1 -1 -2 -2 -2 -3 -3 -3 -3 -3 -4 -3 -3 -3 -3 -3 -3 -4
3 3 2 2 2 2 2 2 2 2 2 1 1 1 1 1 1 1 0 0 0 0 -0 -1 -1 -1 -1 -2 -2 -3 -3 -4 -4 -4 -4 -4 -4 -4 -4 -4 -4 -4 -4
Wind_Speed
3 4 4 4 5 6 4 4 4 5 4 5 5 6 6 7 11 12 11 11 10 10 9 9 9 10 11 12 12 12 12 12 12 12 12 12 12 12 12 12 11 10 10
4 4 4 3 4 4 4 4 4 4 4 4 4 6 6 8 10 12 11 11 11 10 9 9 9 10 10 11 11 11 11 11 11 11 11 11 11 11 11 11 11 11 11
5 4 3 3 3 4 4 5 5 4 3 3 4 5 6 7 9 10 10 10 10 10 10 9 9 9 10 10 10 10 10 10 10 10 9 9 9 9 9 9 9 10 10
6 5 4 3 4 4 3 3 3 3 3 3 3 3 4 5 7 9 9 9 9 8 9 10 10 9 9 9 9 9 9 9 9 9 8 8 9 9 9 9 9 9 9
6 6 4 4 4 3 2 2 3 3 3 3 3 3 3 3 4 6 8 9 8 8 8 8 9 9 8 8 7 7 7 7 8 8 8 8 8 8 8 8 9 9 9
6 6 5 5 5 2 2 2 3 3 3 3 3 3 3 3 3 4 5 7 7 7 6 6 6 6 6 6 6 6 6 6 6 6 7 7 8 8 8 8 9 9 9
6 6 4 4 4 3 3 3 3 4 3 3 3 2 2 2 3 3 3 4 5 5 5 5 5 5 5 5 5 6 6 6 6 6 6 7 7 8 8 8 9 9 10
6 6 5 4 4 3 3 3 3 3 2 2 3 3 2 0 0 2 2 2 3 4 4 4 4 4 5 5 5 5 5 5 6 6 6 7 7 8 9 9 9 10 10
6 6 6 5 5 4 4 3 3 4 4 2 1 3 3 3 1 1 2 2 3 2 2 4 4 4 4 5 5 4 5 5 5 6 7 7 8 8 9 9 10 11 11
5 6 6 5 5 4 4 4 3 3 4 3 1 1 2 3 3 1 1 1 2 2 2 2 3 3 4 4 4 4 4 4 5 6 7 8 8 9 10 10 11 12 12
4 6 6 5 4 4 4 4 3 3 3 4 2 1 1 1 2 3 2 1 1 1 2 2 3 3 4 4 4 2 2 4 6 7 7 8 9 10 10 11 11 12 13
3 4 6 5 5 4 4 4 4 4 3 3 3 2 2 2 2 2 2 2 1 2 1 2 3 4 4 4 3 1 2 4 6 7 8 9 9 10 11 12 12 13 13
3 4 5 5 4 5 5 5 4 4 3 4 3 2 2 2 2 2 2 1 0 1 1 1 2 4 4 4 2 1 3 5 7 8 9 9 10 10 11 12 13 13 14
5 5 5 5 5 6 6 5 4 4 3 4 4 3 2 2 2 2 2 2 1 1 2 2 1 3 3 3 2 3 5 6 8 8 10 10 10 10 11 12 13 14 14
5 6 6 6 6 6 6 6 4 5 4 4 4 4 3 2 2 2 2 3 4 2 3 2 1 1 2 2 4 5 6 8 9 10 10 11 11 11 12 13 14 14 15
5 7 6 6 6 6 6 5 5 5 5 4 3 4 3 2 2 2 2 2 2 3 3 2 2 2 2 3 5 6 7 9 9 10 11 11 12 12 13 14 14 15 15
6 6 6 6 6 6 6 6 5 6 6 5 4 5 4 3 3 3 2 2 2 3 4 3 2 1 2 2 4 5 7 8 9 11 11 12 13 14 14 14 15 16 16
6 6 6 6 6 6 6 7 6 6 6 6 5 5 5 4 4 3 3 3 3 3 4 4 2 2 3 3 3 4 7 8 9 10 12 13 14 14 15 15 16 16 16
5 5 6 6 6 6 6 6 6 6 6 6 6 6 6 5 5 3 4 4 3 3 3 3 4 3 2 2 3 4 5 6 8 10 11 13 14 14 15 16 17 17 17
5 5 6 6 6 6 6 6 6 6 6 5 5 6 6 6 6 5 4 4 3 3 3 3 4 3 3 3 2 3 4 3 4 7 10 12 13 14 15 17 17 17 16
5 5 5 5 5 5 6 6 6 6 6 5 5 5 5 6 7 6 5 4 4 4 3 4 4 4 4 3 3 3 4 4 4 4 4 6 8 9 12 15 15 16 17
4 4 5 5 5 5 7 9 7 5 5 5 5 5 5 5 6 7 8 7 7 6 5 5 5 6 6 5 4 3 3 4 5 3 3 6 4 5 8 11 15 16 16
3 4 4 5 5 6 8 9 8 5 5 5 5 5 4 5 6 5 6 7 7 9 9 7 7 7 6 5 4 4 4 5 7 5 4 7 4 6 8 12 15 16 16
3 3 4 5 4 5 8 9 8 5 4 5 5 6 6 5 6 6 6 5 6 6 7 6 6 7 6 5 5 5 6 6 6 4 3 6 6 6 7 10 15 17 16
2 2 3 4 4 5 8 8 8 4 4 5 5 6 6 6 8 9 6 6 6 6 8 10 10 9 10 10 8 4 4 5 7 5 3 4 5 5 6 6 11 14 14
2 2 2 3 4 4 6 8 8 4 4 4 4 5 8 9 9 10 7 6 7 6 5 5 6 8 8 9 9 6 5 5 6 6 3 3 4 4 5 4 4 7 10
Wind_Direction
138 131 127 136 136 140 145 132 122 119 109 106 109 103 95 92 98 99 89 78 78 80 81 84 87 87 84 80 77 73 71 68 65 63 60 58 55 50 45 42 39 35 33
134 128 115 117 118 128 137 126 116 111 109 100 101 94 90 89 96 103 103 88 79 79 80 82 85 87 85 80 76 73 70 67 64 61 58 54 50 46 42 38 37 34 30
138 130 120 120 117 123 119 109 105 101 110 107 103 96 87 91 96 100 105 102 90 79 80 85 88 87 83 80 75 71 67 63 60 56 51 47 43 39 34 30 28 27 25
139 126 118 114 123 119 111 120 120 113 106 106 102 92 92 88 97 103 101 99 97 92 86 86 84 85 84 78 73 69 66 61 57 52 46 41 37 35 29 24 19 18 15
143 128 122 123 126 118 119 137 114 120 115 105 103 89 84 90 94 100 101 100 100 103 102 96 90 84 82 77 70 66 65 59 52 47 40 33 27 22 17 14 11 8 5
149 134 135 139 134 127 129 124 118 104 113 122 106 87 79 95 95 99 107 107 108 108 110 112 109 96 85 76 67 64 60 51 42 35 28 21 14 10 7 5 2 360 358
146 139 141 142 138 144 153 147 127 117 105 109 105 98 63 85 107 109 105 112 111 112 111 108 109 109 99 81 71 60 50 39 29 21 15 9 5 359 356 353 352 350 347
150 148 141 141 132 134 133 133 131 135 134 126 135 136 138 92 309 133 115 125 129 126 121 116 112 108 102 94 84 65 43 25 13 6 1 358 354 350 347 345 343 342 338
150 148 147 143 142 144 147 145 153 149 156 170 144 142 150 177 157 156 172 145 139 137 143 137 132 125 115 105 93 74 46 19 2 353 348 346 344 341 338 335 335 334 333
149 150 149 146 144 143 147 153 160 156 148 166 171 93 124 133 135 145 244 183 162 157 153 136 133 134 128 121 112 85 42 7 346 341 339 339 337 335 335 334 333 331 330
152 152 151 147 146 146 149 153 156 155 146 152 153 140 109 80 108 140 181 219 229 206 162 154 150 147 143 135 126 97 18 345 332 329 329 329 329 330 330 330 329 328 328
158 152 148 148 149 147 148 153 153 151 148 142 141 135 136 140 158 146 164 183 211 230 207 172 165 159 156 148 146 147 330 323 320 318 318 320 323 324 324 325 325 324 323
173 172 159 156 153 146 145 142 143 150 154 156 158 154 142 148 145 136 143 169 196 255 214 214 188 166 160 153 167 246 288 296 302 305 308 312 318 321 320 319 319 318 318
178 171 162 157 154 151 150 148 147 156 154 162 167 153 142 151 131 131 147 146 160 280 240 231 210 166 160 172 216 260 278 282 291 296 299 303 308 311 312 312 312 313 314
162 160 163 160 159 159 159 157 160 165 161 167 167 162 157 159 144 141 141 155 163 203 247 230 211 201 197 218 246 259 265 275 285 290 291 294 298 301 304 304 305 307 307
159 162 167 167 167 166 165 163 164 164 161 167 166 164 168 166 157 154 158 172 169 180 228 245 224 227 229 255 266 267 269 277 279 284 287 289 293 295 297 299 301 303 302
161 164 167 169 172 171 168 168 171 167 169 171 173 174 180 171 170 173 170 180 190 181 222 265 261 235 224 242 269 269 276 273 274 279 284 287 290 292 293 295 299 300 300
166 167 167 170 174 174 173 174 177 175 177 179 179 177 187 183 185 186 183 195 204 202 208 242 260 248 247 238 248 262 273 271 271 278 283 287 289 290 291 293 295 297 297
169 170 169 175 179 180 179 180 179 180 181 183 181 184 190 184 197 196 194 202 210 215 210 223 250 252 256 248 259 270 267 268 274 276 282 285 288 290 292 294 295 296 296
173 178 178 179 181 182 181 180 179 180 181 183 184 188 192 193 199 198 203 206 205 211 213 225 244 254 253 254 246 265 281 269 271 279 283 287 289 292 293 295 294 293 293
181 180 177 177 177 180 185 180 181 182 182 187 190 192 195 195 196 199 208 205 201 208 220 227 242 256 257 253 249 252 270 285 283 268 272 280 283 281 285 288 291 290 290
178 174 178 179 182 192 188 185 185 184 185 191 196 198 200 200 205 216 222 221 216 214 218 226 238 243 250 248 253 256 268 290 291 264 268 281 273 277 280 282 286 291 293
181 183 187 185 190 192 189 192 194 188 192 198 200 200 211 213 214 212 228 237 239 242 237 231 235 241 244 241 244 256 256 261 269 264 280 285 277 274 277 283 289 293 294
187 193 195 192 189 195 194 197 199 200 202 207 207 206 210 216 211 210 214 225 233 242 245 240 236 243 247 239 230 246 256 270 277 264 247 276 281 276 282 278 284 288 291
192 200 193 187 188 198 198 199 199 196 209 220 218 212 213 216 224 222 217 225 238 246 256 255 257 262 270 271 271 266 264 273 284 280 239 249 275 287 283 274 274 282 288
194 193 201 195 192 202 208 206 203 200 211 222 224 222 223 225 230 226 218 219 235 244 245 255 261 268 270 268 267 251 240 258 277 279 240 231 272 295 295 275 265 275 285
Height
1518 1520 1522 1524 1525 1527 1529 1530 1532 1534 1535 1537 1538 1540 1541 1542 1542 1543 1544 1544 1545 1545 1546 1546 1547 1547 1547 1547 1547 1547 1547 1547 1547 1547 1547 1547 1547 1546 1546 1545 1545 1544 1544
1516 1518 1520 1522 1524 1525 1528 1529 1531 1533 1534 1536 1537 1539 1540 1541 1542 1542 1543 1544 1544 1545 1545 1546 1546 1547 1547 1547 1547 1547 1547 1547 1547 1547 1546 1546 1546 1545 1545 1544 1544 1543 1542
1514 1516 1518 1520 1522 1524 1526 1528 1530 1532 1533 1535 1536 1538 1539 1540 1541 1541 1542 1543 1543 1544 1545 1545 1546 1546 1546 1546 1546 1546 1546 1546 1546 1546 1545 1545 1545 1544 1544 1543 1542 1542 1541
1512 1514 1516 1519 1521 1522 1525 1526 1528 1530 1532 1534 1535 1537 1538 1539 1540 1540 1541 1542 1543 1543 1544 1545 1545 1545 1546 1546 1546 1545 1545 1545 1545 1545 1544 1544 1543 1543 1542 1541 1541 1540 1539
1511 1512 1514 1517 1520 1521 1523 1525 1526 1528 1530 1532 1534 1535 1536 1538 1539 1539 1540 1541 1542 1543 1543 1544 1544 1545 1545 1545 1545 1545 1544 1544 1544 1543 1543 1542 1542 1541 1540 1540 1539 1538 1537
1509 1511 1513 1515 1518 1519 1521 1523 1524 1526 1528 1530 1532 1533 1535 1536 1537 1538 1539 1540 1541 1542 1542 1542 1543 1543 1544 1544 1544 1543 1543 1543 1542 1542 1541 1541 1540 1540 1539 1538 1537 1536 1535
1507 1509 1510 1513 1515 1517 1519 1521 1523 1524 1526 1528 1530 1532 1533 1535 1536 1537 1538 1538 1539 1540 1541 1541 1541 1542 1542 1542 1542 1542 1542 1541 1541 1540 1540 1539 1539 1538 1537 1536 1535 1534 1533
1505 1506 1508 1510 1512 1515 1516 1518 1520 1522 1524 1526 1528 1529 1531 1534 1534 1535 1536 1537 1538 1538 1539 1539 1540 1540 1540 1540 1540 1540 1540 1540 1539 1539 1538 1537 1536 1536 1535 1534 1533 1532 1531
1503 1504 1506 1508 1510 1512 1514 1516 1518 1520 1521 1523 1525 1527 1528 1529 1531 1533 1534 1535 1535 1536 1537 1537 1538 1538 1538 1538 1538 1538 1538 1537 1537 1536 1536 1535 1534 1533 1532 1531 1530 1529 1528
1500 1502 1504 1506 1507 1510 1512 1513 1515 1517 1519 1521 1522 1523 1525 1526 1528 1530 1532 1532 1533 1534 1535 1535 1535 1536 1536 1535 1535 1535 1535 1535 1534 1533 1533 1532 1531 1530 1529 1528 1527 1526 1524
1498 1499 1501 1503 1505 1507 1509 1511 1513 1514 1516 1518 1519 1521 1522 1524 1525 1526 1527 1529 1531 1531 1532 1533 1533 1533 1533 1533 1533 1532 1532 1532 1531 1530 1529 1528 1527 1526 1525 1524 1523 1522 1520
1495 1497 1499 1501 1502 1504 1506 1508 1510 1512 1513 1515 1517 1518 1519 1521 1522 1523 1524 1526 1527 1529 1529 1529 1529 1530 1530 1530 1530 1529 1529 1528 1527 1527 1526 1525 1524 1523 1521 1520 1518 1517 1516
1492 1494 1496 1498 1500 1501 1503 1505 1507 1509 1511 1512 1514 1515 1517 1518 1520 1521 1522 1523 1524 1525 1526 1526 1526 1526 1526 1526 1526 1526 1525 1524 1524 1523 1522 1521 1519 1518 1517 1516 1514 1513 1511
1490 1492 1493 1495 1497 1498 1500 1502 1504 1506 1508 1510 1511 1512 1514 1515 1517 1517 1519 1520 1520 1521 1522 1522 1523 1523 1523 1523 1522 1522 1521 1521 1520 1519 1517 1516 1515 1514 1512 1511 1509 1508 1506
1487 1489 1491 1492 1494 1496 1497 1499 1501 1503 1505 1506 1508 1509 1510 1512 1513 1514 1515 1516 1518 1518 1518 1518 1519 1519 1519 1519 1518 1518 1517 1516 1515 1514 1513 1512 1510 1509 1508 1506 1504 1503 1501
1484 1486 1487 1489 1491 1493 1495 1496 1498 1500 1501 1503 1505 1506 1507 1508 1509 1510 1512 1513 1513 1514 1514 1514 1514 1515 1515 1514 1514 1513 1513 1512 1511 1510 1509 1507 1506 1504 1503 1501 1499 1497 1495
1481 1482 1484 1486 1488 1490 1492 1493 1495 1496 1498 1499 1501 1502 1503 1504 1506 1507 1508 1508 1509 1510 1509 1509 1510 1510 1510 1510 1509 1509 1508 1507 1506 1505 1504 1502 1501 1499 1498 1496 1494 1492 1490
1478 1479 1481 1483 1485 1486 1488 1490 1491 1493 1494 1495 1497 1499 1500 1501 1502 1503 1503 1504 1505 1505 1505 1505 1505 1506 1505 1505 1504 1503 1503 1502 1501 1500 1499 1497 1496 1494 1492 1490 1488 1486 1484
1474 1476 1478 1479 1481 1483 1485 1486 1487 1489 1490 1491 1493 1495 1496 1497 1498 1499 1499 1500 1500 1501 1501 1501 1500 1501 1500 1500 1499 1498 1498 1496 1496 1494 1493 1491 1490 1488 1486 1484 1482 1480 1478
1471 1472 1474 1476 1478 1479 1481 1482 1483 1484 1486 1487 1489 1491 1492 1493 1494 1495 1495 1495 1496 1496 1496 1496 1496 1495 1495 1495 1494 1493 1491 1490 1490 1489 1487 1486 1484 1482 1480 1478 1476 1474 1472
1467 1469 1471 1472 1474 1475 1477 1478 1480 1480 1482 1483 1485 1486 1487 1488 1489 1490 1490 1491 1491 1491 1491 1491 1491 1490 1489 1489 1489 1487 1486 1484 1483 1482 1480 1479 1478 1475 1474 1472 1470 1467 1466
1464 1466 1467 1468 1470 1471 1473 1474 1476 1476 1477 1479 1480 1481 1483 1484 1485 1485 1486 1486 1487 1487 1486 1486 1485 1484 1484 1484 1483 1482 1481 1479 1476 1477 1475 1472 1471 1469 1467 1465 1464 1462 1460
1461 1462 1463 1464 1466 1467 1469 1470 1471 1472 1473 1474 1476 1477 1478 1479 1480 1480 1481 1481 1481 1482 1482 1482 1480 1479 1479 1479 1478 1476 1475 1473 1471 1470 1469 1465 1464 1462 1461 1459 1458 1456 1454
1457 1458 1459 1460 1462 1463 1465 1466 1467 1468 1469 1470 1471 1472 1473 1474 1474 1475 1475 1475 1476 1476 1476 1476 1475 1475 1474 1474 1473 1472 1470 1468 1465 1464 1464 1460 1457 1456 1454 1453 1451 1450 1448
1454 1454 1455 1456 1457 1459 1460 1462 1463 1463 1464 1465 1466 1467 1468 1468 1469 1470 1470 1470 1470 1470 1470 1470 1470 1469 1468 1468 1467 1466 1464 1462 1459 1457 1457 1455 1452 1449 1447 1445 1445 1443 1442
1450 1451 1451 1452 1453 1454 1456 1457 1458 1458 1459 1460 1461 1461 1462 1463 1464 1464 1464 1464 1463 1463 1464 1463 1463 1463 1462 1461 1461 1460 1458 1456 1453 1451 1450 1449 1447 1445 1440 1438 1438 1437 1435